TimePST,TemperatureF,Dew PointF,Humidity,Sea Level PressureIn,VisibilityMPH,Wind Direction,Wind SpeedMPH,Gust SpeedMPH,PrecipitationIn,Events,Conditions,WindDirDegrees,DateUTC
12:53 AM,50.0,46.9,89,29.91,10.0,Calm,Calm,-,N/A,,Clear,0,2012-11-25 08:53:00
1:53 AM,48.9,46.0,90,29.90,10.0,Calm,Calm,-,N/A,,Clear,0,2012-11-25 09:53:00
2:53 AM,48.0,45.0,89,29.90,10.0,Calm,Calm,-,N/A,,Clear,0,2012-11-25 10:53:00
3:53 AM,46.9,43.0,86,29.90,10.0,Calm,Calm,-,N/A,,Clear,0,2012-11-25 11:53:00
4:22 AM,46.4,42.8,87,29.90,10.0,NNE,3.5,-,0.01,,Scattered Clouds,30,2012-11-25 12:22:00
4:31 AM,46.4,42.8,87,29.91,10.0,Calm,Calm,-,0.01,,Mostly Cloudy,0,2012-11-25 12:31:00
4:53 AM,48.9,46.0,90,29.91,10.0,Calm,Calm,-,0.01,,Overcast,0,2012-11-25 12:53:00
5:18 AM,50.0,48.2,94,29.91,1.8,Calm,Calm,-,N/A,,Overcast,0,2012-11-25 13:18:00
5:28 AM,50.0,48.2,94,29.91,0.2,Calm,Calm,-,N/A,Fog,Fog,0,2012-11-25 13:28:00
5:53 AM,51.1,50.0,96,29.92,0.2,Calm,Calm,-,N/A,Fog,Fog,0,2012-11-25 13:53:00
6:53 AM,52.0,52.0,100,29.92,0.2,Calm,Calm,-,N/A,Fog,Fog,0,2012-11-25 14:53:00
7:50 AM,51.8,50.0,94,29.93,1.0,Calm,Calm,-,N/A,,Mist,0,2012-11-25 15:50:00
7:53 AM,51.1,50.0,96,29.94,10.0,Calm,Calm,-,N/A,,Partly Cloudy,0,2012-11-25 15:53:00
8:53 AM,59.0,55.0,87,29.94,10.0,SSE,3.5,-,N/A,,Partly Cloudy,150,2012-11-25 16:53:00
9:53 AM,57.9,55.9,93,29.95,3.0,SSE,6.9,-,N/A,,Mostly Cloudy,150,2012-11-25 17:53:00
9:57 AM,57.2,55.4,94,29.95,0.2,SSE,5.8,-,N/A,Fog,Fog,150,2012-11-25 17:57:00
10:08 AM,57.2,55.4,94,29.95,0.2,SSE,5.8,-,N/A,Fog,Fog,160,2012-11-25 18:08:00
10:42 AM,57.2,55.4,94,29.95,7.0,SSE,4.6,-,N/A,,Scattered Clouds,160,2012-11-25 18:42:00
10:53 AM,59.0,55.9,90,29.94,8.0,SSE,5.8,-,N/A,,Partly Cloudy,160,2012-11-25 18:53:00
11:53 AM,60.1,55.0,83,29.92,9.0,SSE,8.1,-,N/A,,Mostly Cloudy,150,2012-11-25 19:53:00
12:37 PM,62.6,55.4,77,29.91,6.0,SE,9.2,-,N/A,,Haze,140,2012-11-25 20:37:00
12:53 PM,62.1,55.0,78,29.91,8.0,SSE,9.2,-,N/A,,Partly Cloudy,150,2012-11-25 20:53:00
1:53 PM,62.1,55.0,78,29.89,7.0,SSE,9.2,-,N/A,,Partly Cloudy,150,2012-11-25 21:53:00
2:53 PM,62.1,55.9,80,29.89,10.0,South,4.6,-,N/A,,Scattered Clouds,180,2012-11-25 22:53:00
3:04 PM,62.6,55.4,77,29.89,5.0,SSE,3.5,-,N/A,,Haze,160,2012-11-25 23:04:00
3:53 PM,61.0,55.0,81,29.88,5.0,Calm,Calm,-,N/A,,Haze,0,2012-11-25 23:53:00
4:37 PM,60.8,55.4,82,29.89,5.0,SW,4.6,-,N/A,,Haze,220,2012-11-26 00:37:00
4:53 PM,60.1,55.9,86,29.89,4.0,West,6.9,-,N/A,,Haze,260,2012-11-26 00:53:00
5:53 PM,59.0,55.9,90,29.90,8.0,West,4.6,-,N/A,,Haze,260,2012-11-26 01:53:00
6:53 PM,59.0,55.0,87,29.91,8.0,SSW,3.5,-,N/A,,Overcast,210,2012-11-26 02:53:00
7:53 PM,59.0,55.0,87,29.92,8.0,Calm,Calm,-,N/A,,Overcast,0,2012-11-26 03:53:00
8:53 PM,60.1,55.0,83,29.93,9.0,Calm,Calm,-,N/A,,Overcast,0,2012-11-26 04:53:00
9:53 PM,60.1,55.0,83,29.94,8.0,East,3.5,-,N/A,,Overcast,100,2012-11-26 05:53:00
10:53 PM,59.0,54.0,83,29.96,7.0,ESE,4.6,-,N/A,,Overcast,110,2012-11-26 06:53:00
10:58 PM,59.0,53.6,82,29.96,7.0,ESE,3.5,-,N/A,,Overcast,120,2012-11-26 06:58:00
11:53 PM,57.9,53.1,84,29.98,10.0,SE,5.8,-,N/A,,Overcast,140,2012-11-26 07:53:00